When you browse on this site, cookies collect data to enhance your experience and personalize the content and advertising you see.
Visit our Privacy Policy to learn more. By continuing to use the site, you agree to this use of cookies and data.
  • In Romania
  • List of Countries
  • For 7 days
  • Water Temperature
  • Satellite Maps
  • Weather Map
  • Weather Widgets
  • user-avatar
    Login

    Hourly Weather Juticalpa

    Today, 24 May, Friday

    Time Temperature Precipitation Wind Pressure Humidity
    00:00 +25°C° 0.5 mm 1 mps 726 mmHg 94%
    01:00 +25°C° 0.1 mm 1 mps 726 mmHg 95%
    02:00 +25°C° 0.1 mm 1 mps 726 mmHg 95%
    03:00 +24°C° 0.1 mm 1 mps 726 mmHg 95%
    04:00 +22°C° 0 mm 0 mps 726 mmHg 95%
    05:00 +22°C° 0 mm 0 mps 726 mmHg 94%
    06:00 +23°C° 0 mm 0 mps 726 mmHg 94%
    07:00 +26°C° 0.1 mm 1 mps 726 mmHg 87%
    08:00 +27°C° 0.1 mm 1 mps 727 mmHg 81%
    09:00 +28°C° 0.1 mm 2 mps 727 mmHg 74%
    10:00 +30°C° 0.1 mm 2 mps 727 mmHg 68%
    11:00 +31°C° 0.1 mm 2 mps 727 mmHg 61%
    12:00 +34°C° 0.1 mm 2 mps 726 mmHg 54%
    13:00 +32°C° 0.8 mm 2 mps 726 mmHg 59%
    14:00 +31°C° 0.8 mm 3 mps 725 mmHg 64%
    15:00 +31°C° 0.8 mm 3 mps 725 mmHg 69%
    16:00 +29°C° 1.6 mm 2 mps 725 mmHg 75%
    17:00 +28°C° 1.6 mm 2 mps 725 mmHg 82%
    18:00 +26°C° 1.6 mm 1 mps 725 mmHg 89%
    19:00 +26°C° 0.5 mm 1 mps 726 mmHg 90%
    20:00 +25°C° 0.5 mm 1 mps 726 mmHg 92%
    21:00 +25°C° 0.5 mm 1 mps 727 mmHg 94%
    22:00 +25°C° 0 mm 1 mps 727 mmHg 95%
    23:00 +22°C° 0 mm 0 mps 727 mmHg 95%

    Tomorrow, 25 May, Saturday

    Time Temperature Precipitation Wind Pressure Humidity
    00:00 +22°C° 0 mm 0 mps 727 mmHg 95%
    01:00 +22°C° 0 mm 0 mps 726 mmHg 96%
    02:00 +22°C° 0 mm 0 mps 726 mmHg 96%
    03:00 +22°C° 0 mm 0 mps 725 mmHg 96%
    04:00 +22°C° 0 mm 0 mps 726 mmHg 95%
    05:00 +22°C° 0 mm 0 mps 726 mmHg 94%
    06:00 +22°C° 0 mm 0 mps 726 mmHg 93%
    07:00 +26°C° 0 mm 1 mps 726 mmHg 83%
    08:00 +27°C° 0 mm 1 mps 727 mmHg 74%
    09:00 +29°C° 0 mm 1 mps 727 mmHg 65%
    10:00 +30°C° 0.1 mm 2 mps 727 mmHg 60%
    11:00 +31°C° 0.1 mm 2 mps 727 mmHg 56%
    12:00 +34°C° 0.1 mm 3 mps 726 mmHg 51%
    13:00 +33°C° 0.1 mm 3 mps 726 mmHg 51%
    14:00 +33°C° 0.1 mm 3 mps 725 mmHg 52%
    15:00 +33°C° 0.1 mm 3 mps 725 mmHg 52%
    16:00 +31°C° 0.6 mm 2 mps 725 mmHg 62%
    17:00 +29°C° 0.6 mm 2 mps 725 mmHg 71%
    18:00 +27°C° 0.6 mm 2 mps 725 mmHg 80%
    19:00 +26°C° 0.7 mm 1 mps 726 mmHg 84%
    20:00 +26°C° 0.7 mm 1 mps 726 mmHg 88%
    21:00 +25°C° 0.7 mm 1 mps 727 mmHg 92%
    22:00 +25°C° 0 mm 1 mps 727 mmHg 92%
    23:00 +23°C° 0 mm 0 mps 727 mmHg 93%

    Day after tomorrow, 26 May, Sunday

    Time Temperature Precipitation Wind Pressure Humidity
    00:00 +22°C° 0 mm 0 mps 727 mmHg 94%
    01:00 +22°C° 0 mm 0 mps 726 mmHg 94%
    02:00 +22°C° 0 mm 0 mps 726 mmHg 94%
    03:00 +22°C° 0 mm 0 mps 725 mmHg 95%
    04:00 +22°C° 0 mm 0 mps 725 mmHg 94%
    05:00 +22°C° 0 mm 0 mps 726 mmHg 93%
    06:00 +22°C° 0 mm 0 mps 726 mmHg 92%
    07:00 +24°C° 0 mm 0 mps 726 mmHg 85%
    08:00 +25°C° 0 mm 0 mps 727 mmHg 77%
    09:00 +27°C° 0 mm 0 mps 727 mmHg 70%
    10:00 +29°C° 0.1 mm 1 mps 727 mmHg 67%
    11:00 +30°C° 0.1 mm 1 mps 727 mmHg 64%
    12:00 +30°C° 0.1 mm 1 mps 727 mmHg 61%
    13:00 +30°C° 0.3 mm 1 mps 726 mmHg 62%
    14:00 +30°C° 0.3 mm 1 mps 726 mmHg 62%
    15:00 +30°C° 0.3 mm 1 mps 725 mmHg 63%
    16:00 +29°C° 1 mm 1 mps 725 mmHg 71%
    17:00 +27°C° 1 mm 1 mps 725 mmHg 79%
    18:00 +26°C° 1 mm 1 mps 725 mmHg 87%
    19:00 +26°C° 0.4 mm 1 mps 726 mmHg 88%
    20:00 +23°C° 0.4 mm 0 mps 726 mmHg 89%
    21:00 +23°C° 0.4 mm 0 mps 727 mmHg 91%
    22:00 +23°C° 0.1 mm 0 mps 727 mmHg 91%
    23:00 +22°C° 0.1 mm 0 mps 727 mmHg 92%

    27 May, Monday

    Time Temperature Precipitation Wind Pressure Humidity
    00:00 +22°C° 0.1 mm 0 mps 727 mmHg 93%
    01:00 +22°C° 0 mm 0 mps 726 mmHg 93%
    02:00 +22°C° 0 mm 0 mps 725 mmHg 94%
    03:00 +21°C° 0 mm 0 mps 725 mmHg 94%
    04:00 +22°C° 0 mm 0 mps 725 mmHg 93%
    05:00 +22°C° 0 mm 0 mps 725 mmHg 92%
    06:00 +22°C° 0 mm 0 mps 725 mmHg 91%
    07:00 +24°C° 0 mm 0 mps 726 mmHg 83%
    08:00 +27°C° 0 mm 1 mps 726 mmHg 76%
    09:00 +29°C° 0 mm 1 mps 727 mmHg 68%
    10:00 +30°C° 0.3 mm 1 mps 726 mmHg 65%
    11:00 +31°C° 0.3 mm 1 mps 726 mmHg 62%
    12:00 +32°C° 0.3 mm 1 mps 725 mmHg 59%
    13:00 +31°C° 1.6 mm 1 mps 725 mmHg 63%
    14:00 +31°C° 1.6 mm 1 mps 724 mmHg 67%
    15:00 +30°C° 1.6 mm 1 mps 723 mmHg 71%
    16:00 +29°C° 1.6 mm 1 mps 724 mmHg 77%
    17:00 +28°C° 1.6 mm 1 mps 724 mmHg 82%
    18:00 +27°C° 1.6 mm 1 mps 724 mmHg 88%
    19:00 +24°C° 0.6 mm 0 mps 725 mmHg 89%
    20:00 +24°C° 0.6 mm 0 mps 725 mmHg 90%
    21:00 +23°C° 0.6 mm 0 mps 726 mmHg 91%
    22:00 +23°C° 0 mm 0 mps 726 mmHg 92%
    23:00 +25°C° 0 mm 1 mps 725 mmHg 93%

    28 May, Tuesday

    Time Temperature Precipitation Wind Pressure Humidity
    00:00 +24°C° 0 mm 1 mps 725 mmHg 93%
    01:00 +24°C° 0 mm 1 mps 724 mmHg 94%
    02:00 +24°C° 0 mm 1 mps 724 mmHg 94%
    03:00 +22°C° 0 mm 0 mps 723 mmHg 94%
    04:00 +24°C° 0 mm 1 mps 724 mmHg 93%
    05:00 +24°C° 0 mm 1 mps 724 mmHg 92%
    06:00 +24°C° 0 mm 1 mps 724 mmHg 91%
    07:00 +26°C° 0 mm 1 mps 724 mmHg 81%
    08:00 +28°C° 0 mm 1 mps 725 mmHg 70%
    09:00 +31°C° 0 mm 1 mps 725 mmHg 60%
    10:00 +32°C° 0.1 mm 1 mps 725 mmHg 56%
    11:00 +33°C° 0.1 mm 1 mps 724 mmHg 52%
    12:00 +35°C° 0.1 mm 1 mps 724 mmHg 49%
    13:00 +33°C° 1.2 mm 1 mps 723 mmHg 56%
    14:00 +32°C° 1.2 mm 1 mps 722 mmHg 63%
    15:00 +31°C° 1.2 mm 2 mps 722 mmHg 70%
    16:00 +30°C° 1.9 mm 1 mps 722 mmHg 75%
    17:00 +29°C° 1.9 mm 1 mps 723 mmHg 81%
    18:00 +27°C° 1.9 mm 1 mps 723 mmHg 87%
    19:00 +27°C° 1.2 mm 1 mps 723 mmHg 88%
    20:00 +27°C° 1.2 mm 1 mps 724 mmHg 88%
    21:00 +26°C° 1.2 mm 1 mps 724 mmHg 89%
    22:00 +24°C° 0.4 mm 0 mps 724 mmHg 90%
    23:00 +24°C° 0.4 mm 0 mps 724 mmHg 91%

    29 May, Wednesday

    Time Temperature Precipitation Wind Pressure Humidity
    00:00 +24°C° 0.4 mm 0 mps 724 mmHg 91%
    01:00 +23°C° 0 mm 0 mps 723 mmHg 92%
    02:00 +23°C° 0 mm 0 mps 723 mmHg 93%
    03:00 +23°C° 0 mm 0 mps 723 mmHg 94%
    04:00 +23°C° 0 mm 0 mps 723 mmHg 94%
    05:00 +23°C° 0 mm 0 mps 723 mmHg 93%
    06:00 +23°C° 0 mm 0 mps 723 mmHg 92%
    07:00 +25°C° 0 mm 0 mps 724 mmHg 85%
    08:00 +26°C° 0 mm 0 mps 724 mmHg 78%
    09:00 +28°C° 0 mm 0 mps 724 mmHg 71%
    10:00 +30°C° 0.2 mm 0 mps 724 mmHg 65%
    11:00 +31°C° 0.2 mm 0 mps 724 mmHg 59%
    12:00 +33°C° 0.2 mm 0 mps 723 mmHg 53%
    13:00 +34°C° 1.6 mm 1 mps 723 mmHg 58%
    14:00 +33°C° 1.6 mm 1 mps 722 mmHg 64%
    15:00 +31°C° 1.6 mm 1 mps 722 mmHg 70%
    16:00 +30°C° 2.1 mm 1 mps 722 mmHg 76%
    17:00 +29°C° 2.1 mm 1 mps 723 mmHg 83%
    18:00 +27°C° 2.1 mm 1 mps 723 mmHg 89%
    19:00 +25°C° 0.9 mm 0 mps 723 mmHg 90%
    20:00 +25°C° 0.9 mm 0 mps 724 mmHg 91%
    21:00 +24°C° 0.9 mm 0 mps 724 mmHg 92%
    22:00 +24°C° 1.1 mm 0 mps 724 mmHg 92%
    23:00 +24°C° 1.1 mm 0 mps 724 mmHg 92%
    Show more